<?xml version="1.0" encoding="UTF-8" standalone="no" ?>
<gpx xmlns="http://www.topografix.com/GPX/1/1" xmlns:xsi="http://www.w3.org/2001/XMLSchema-instance" xsi:schemaLocation="http://www.topografix.com/GPX/1/1 http://www.topografix.com/GPX/1/1/gpx.xsd" version="1.1" creator="VisuGPX - https://www.visugpx.com">
  <metadata>
    <name>Limerzel_Templiers_Trevolo_20+-22km</name>
    <desc><![CDATA[gnerando idor:8319516_9686623_9744769]]></desc>
  </metadata>
  <trk>
    <name><![CDATA[Limerzel_ 2boucles_20.6km-8319516]]></name>
    <extensions>
      <line xmlns="http://www.topografix.com/GPX/gpx_style/0/2">
        <color>0000FF</color>
        <width>4</width>
      </line>
    </extensions>
    <trkseg>
      <trkpt lat="47.63779" lon="-2.35627">
        <ele>76</ele>
        <time>2023-11-05T10:43:47Z</time>
      </trkpt>
      <trkpt lat="47.63964" lon="-2.35908">
        <ele>77</ele>
        <time>2023-11-05T10:49:40Z</time>
      </trkpt>
      <trkpt lat="47.6384" lon="-2.35961">
        <ele>79</ele>
        <time>2023-11-05T10:52:32Z</time>
      </trkpt>
      <trkpt lat="47.63826" lon="-2.35999">
        <ele>77</ele>
        <time>2023-11-05T10:53:11Z</time>
      </trkpt>
      <trkpt lat="47.63627" lon="-2.35877">
        <ele>52</ele>
        <time>2023-11-05T10:57:59Z</time>
      </trkpt>
      <trkpt lat="47.63613" lon="-2.35944">
        <ele>49</ele>
        <time>2023-11-05T10:59:02Z</time>
      </trkpt>
      <trkpt lat="47.63469" lon="-2.36025">
        <ele>39</ele>
        <time>2023-11-05T11:02:27Z</time>
      </trkpt>
      <trkpt lat="47.63338" lon="-2.36255">
        <ele>39</ele>
        <time>2023-11-05T11:06:58Z</time>
      </trkpt>
      <trkpt lat="47.63266" lon="-2.36566">
        <ele>30</ele>
        <time>2023-11-05T11:11:54Z</time>
      </trkpt>
      <trkpt lat="47.63163" lon="-2.36781">
        <ele>24</ele>
        <time>2023-11-05T11:15:51Z</time>
      </trkpt>
      <trkpt lat="47.63129" lon="-2.36954">
        <ele>28</ele>
        <time>2023-11-05T11:18:33Z</time>
      </trkpt>
      <trkpt lat="47.63087" lon="-2.36939">
        <ele>29</ele>
        <time>2023-11-05T11:19:31Z</time>
      </trkpt>
      <trkpt lat="47.63094" lon="-2.36765">
        <ele>29</ele>
        <time>2023-11-05T11:22:08Z</time>
      </trkpt>
      <trkpt lat="47.63067" lon="-2.36597">
        <ele>24</ele>
        <time>2023-11-05T11:24:43Z</time>
      </trkpt>
      <trkpt lat="47.62867" lon="-2.36418">
        <ele>39</ele>
        <time>2023-11-05T11:29:55Z</time>
      </trkpt>
      <trkpt lat="47.62272" lon="-2.36561">
        <ele>66</ele>
        <time>2023-11-05T11:43:19Z</time>
      </trkpt>
      <trkpt lat="47.62234" lon="-2.36918">
        <ele>72</ele>
        <time>2023-11-05T11:48:44Z</time>
      </trkpt>
      <trkpt lat="47.62231" lon="-2.37128">
        <ele>70</ele>
        <time>2023-11-05T11:51:53Z</time>
      </trkpt>
      <trkpt lat="47.62248" lon="-2.37174">
        <ele>67</ele>
        <time>2023-11-05T11:52:40Z</time>
      </trkpt>
      <trkpt lat="47.62231" lon="-2.37255">
        <ele>61</ele>
        <time>2023-11-05T11:53:56Z</time>
      </trkpt>
      <trkpt lat="47.62086" lon="-2.37296">
        <ele>66</ele>
        <time>2023-11-05T11:57:13Z</time>
      </trkpt>
      <trkpt lat="47.62038" lon="-2.37362">
        <ele>66</ele>
        <time>2023-11-05T11:58:41Z</time>
      </trkpt>
      <trkpt lat="47.62081" lon="-2.37477">
        <ele>68</ele>
        <time>2023-11-05T12:00:39Z</time>
      </trkpt>
      <trkpt lat="47.62071" lon="-2.3752">
        <ele>69</ele>
        <time>2023-11-05T12:01:20Z</time>
      </trkpt>
      <trkpt lat="47.62018" lon="-2.37564">
        <ele>75</ele>
        <time>2023-11-05T12:02:41Z</time>
      </trkpt>
      <trkpt lat="47.62042" lon="-2.37713">
        <ele>74</ele>
        <time>2023-11-05T12:04:59Z</time>
      </trkpt>
      <trkpt lat="47.62062" lon="-2.37899">
        <ele>76</ele>
        <time>2023-11-05T12:07:48Z</time>
      </trkpt>
      <trkpt lat="47.62141" lon="-2.38168">
        <ele>79</ele>
        <time>2023-11-05T12:12:12Z</time>
      </trkpt>
      <trkpt lat="47.62165" lon="-2.38232">
        <ele>79</ele>
        <time>2023-11-05T12:13:18Z</time>
      </trkpt>
      <trkpt lat="47.6226" lon="-2.382">
        <ele>73</ele>
        <time>2023-11-05T12:15:28Z</time>
      </trkpt>
      <trkpt lat="47.62267" lon="-2.3829">
        <ele>78</ele>
        <time>2023-11-05T12:16:49Z</time>
      </trkpt>
      <trkpt lat="47.62347" lon="-2.38265">
        <ele>64</ele>
        <time>2023-11-05T12:18:39Z</time>
      </trkpt>
      <trkpt lat="47.62391" lon="-2.38449">
        <ele>69</ele>
        <time>2023-11-05T12:21:34Z</time>
      </trkpt>
      <trkpt lat="47.6242" lon="-2.38536">
        <ele>73</ele>
        <time>2023-11-05T12:23:01Z</time>
      </trkpt>
      <trkpt lat="47.62406" lon="-2.38615">
        <ele>77</ele>
        <time>2023-11-05T12:24:15Z</time>
      </trkpt>
      <trkpt lat="47.62464" lon="-2.38817">
        <ele>86</ele>
        <time>2023-11-05T12:27:32Z</time>
      </trkpt>
      <trkpt lat="47.62462" lon="-2.38896">
        <ele>86</ele>
        <time>2023-11-05T12:28:43Z</time>
      </trkpt>
      <trkpt lat="47.62685" lon="-2.39286">
        <ele>93</ele>
        <time>2023-11-05T12:36:23Z</time>
      </trkpt>
      <trkpt lat="47.62822" lon="-2.38994">
        <ele>72</ele>
        <time>2023-11-05T12:41:43Z</time>
      </trkpt>
      <trkpt lat="47.62783" lon="-2.38824">
        <ele>73</ele>
        <time>2023-11-05T12:44:25Z</time>
      </trkpt>
      <trkpt lat="47.62861" lon="-2.38734">
        <ele>71</ele>
        <time>2023-11-05T12:46:37Z</time>
      </trkpt>
      <trkpt lat="47.62919" lon="-2.3885">
        <ele>70</ele>
        <time>2023-11-05T12:48:47Z</time>
      </trkpt>
      <trkpt lat="47.62955" lon="-2.38593">
        <ele>76</ele>
        <time>2023-11-05T12:52:43Z</time>
      </trkpt>
      <trkpt lat="47.6307" lon="-2.38445">
        <ele>71</ele>
        <time>2023-11-05T12:56:06Z</time>
      </trkpt>
      <trkpt lat="47.63082" lon="-2.38301">
        <ele>69</ele>
        <time>2023-11-05T12:58:16Z</time>
      </trkpt>
      <trkpt lat="47.63152" lon="-2.38232">
        <ele>54</ele>
        <time>2023-11-05T13:00:09Z</time>
      </trkpt>
      <trkpt lat="47.63228" lon="-2.3833">
        <ele>46</ele>
        <time>2023-11-05T13:02:23Z</time>
      </trkpt>
      <trkpt lat="47.63359" lon="-2.38384">
        <ele>39</ele>
        <time>2023-11-05T13:05:24Z</time>
      </trkpt>
      <trkpt lat="47.63422" lon="-2.38611">
        <ele>42</ele>
        <time>2023-11-05T13:09:05Z</time>
      </trkpt>
      <trkpt lat="47.63425" lon="-2.38716">
        <ele>40</ele>
        <time>2023-11-05T13:10:40Z</time>
      </trkpt>
      <trkpt lat="47.63495" lon="-2.38785">
        <ele>47</ele>
        <time>2023-11-05T13:12:32Z</time>
      </trkpt>
      <trkpt lat="47.63534" lon="-2.3907">
        <ele>53</ele>
        <time>2023-11-05T13:16:53Z</time>
      </trkpt>
      <trkpt lat="47.63666" lon="-2.392">
        <ele>49</ele>
        <time>2023-11-05T13:20:25Z</time>
      </trkpt>
      <trkpt lat="47.63726" lon="-2.39391">
        <ele>48</ele>
        <time>2023-11-05T13:23:34Z</time>
      </trkpt>
      <trkpt lat="47.63809" lon="-2.39496">
        <ele>46</ele>
        <time>2023-11-05T13:26:00Z</time>
      </trkpt>
      <trkpt lat="47.63889" lon="-2.39283">
        <ele>58</ele>
        <time>2023-11-05T13:29:39Z</time>
      </trkpt>
      <trkpt lat="47.63952" lon="-2.3883">
        <ele>74</ele>
        <time>2023-11-05T13:36:35Z</time>
      </trkpt>
      <trkpt lat="47.63909" lon="-2.38651">
        <ele>68</ele>
        <time>2023-11-05T13:39:26Z</time>
      </trkpt>
      <trkpt lat="47.63882" lon="-2.38388">
        <ele>61</ele>
        <time>2023-11-05T13:43:25Z</time>
      </trkpt>
      <trkpt lat="47.64011" lon="-2.38312">
        <ele>80</ele>
        <time>2023-11-05T13:46:30Z</time>
      </trkpt>
      <trkpt lat="47.63948" lon="-2.38066">
        <ele>82</ele>
        <time>2023-11-05T13:50:27Z</time>
      </trkpt>
      <trkpt lat="47.63909" lon="-2.38027">
        <ele>83</ele>
        <time>2023-11-05T13:51:30Z</time>
      </trkpt>
      <trkpt lat="47.63855" lon="-2.37882">
        <ele>82</ele>
        <time>2023-11-05T13:53:59Z</time>
      </trkpt>
      <trkpt lat="47.63848" lon="-2.37655">
        <ele>81</ele>
        <time>2023-11-05T13:57:23Z</time>
      </trkpt>
      <trkpt lat="47.63763" lon="-2.37356">
        <ele>83</ele>
        <time>2023-11-05T14:02:15Z</time>
      </trkpt>
      <trkpt lat="47.63661" lon="-2.37251">
        <ele>75</ele>
        <time>2023-11-05T14:05:00Z</time>
      </trkpt>
      <trkpt lat="47.63622" lon="-2.37175">
        <ele>70</ele>
        <time>2023-11-05T14:06:26Z</time>
      </trkpt>
      <trkpt lat="47.63593" lon="-2.37146">
        <ele>65</ele>
        <time>2023-11-05T14:07:13Z</time>
      </trkpt>
      <trkpt lat="47.63556" lon="-2.37186">
        <ele>60</ele>
        <time>2023-11-05T14:08:14Z</time>
      </trkpt>
      <trkpt lat="47.6358" lon="-2.37067">
        <ele>65</ele>
        <time>2023-11-05T14:10:06Z</time>
      </trkpt>
      <trkpt lat="47.63525" lon="-2.36984">
        <ele>60</ele>
        <time>2023-11-05T14:11:50Z</time>
      </trkpt>
      <trkpt lat="47.635" lon="-2.36699">
        <ele>72</ele>
        <time>2023-11-05T14:16:09Z</time>
      </trkpt>
      <trkpt lat="47.63452" lon="-2.36529">
        <ele>71</ele>
        <time>2023-11-05T14:18:55Z</time>
      </trkpt>
      <trkpt lat="47.63452" lon="-2.36399">
        <ele>70</ele>
        <time>2023-11-05T14:20:51Z</time>
      </trkpt>
      <trkpt lat="47.63561" lon="-2.36208">
        <ele>72</ele>
        <time>2023-11-05T14:24:37Z</time>
      </trkpt>
      <trkpt lat="47.63632" lon="-2.36067">
        <ele>64</ele>
        <time>2023-11-05T14:27:15Z</time>
      </trkpt>
      <trkpt lat="47.63695" lon="-2.36067">
        <ele>71</ele>
        <time>2023-11-05T14:28:39Z</time>
      </trkpt>
      <trkpt lat="47.63777" lon="-2.36107">
        <ele>77</ele>
        <time>2023-11-05T14:30:34Z</time>
      </trkpt>
      <trkpt lat="47.63839" lon="-2.36039">
        <ele>76</ele>
        <time>2023-11-05T14:32:17Z</time>
      </trkpt>
      <trkpt lat="47.63837" lon="-2.3599">
        <ele>77</ele>
        <time>2023-11-05T14:33:01Z</time>
      </trkpt>
      <trkpt lat="47.63974" lon="-2.35896">
        <ele>77</ele>
        <time>2023-11-05T14:36:22Z</time>
      </trkpt>
      <trkpt lat="47.63835" lon="-2.35691">
        <ele>79</ele>
        <time>2023-11-05T14:40:44Z</time>
      </trkpt>
      <trkpt lat="47.63813" lon="-2.3556">
        <ele>78</ele>
        <time>2023-11-05T14:42:45Z</time>
      </trkpt>
      <trkpt lat="47.6383" lon="-2.35515">
        <ele>79</ele>
        <time>2023-11-05T14:43:32Z</time>
      </trkpt>
      <trkpt lat="47.63734" lon="-2.35347">
        <ele>72</ele>
        <time>2023-11-05T14:46:50Z</time>
      </trkpt>
      <trkpt lat="47.63847" lon="-2.35178">
        <ele>61</ele>
        <time>2023-11-05T14:50:24Z</time>
      </trkpt>
      <trkpt lat="47.63827" lon="-2.35071">
        <ele>58</ele>
        <time>2023-11-05T14:52:04Z</time>
      </trkpt>
      <trkpt lat="47.63696" lon="-2.34923">
        <ele>49</ele>
        <time>2023-11-05T14:55:43Z</time>
      </trkpt>
      <trkpt lat="47.63638" lon="-2.34811">
        <ele>42</ele>
        <time>2023-11-05T14:57:50Z</time>
      </trkpt>
      <trkpt lat="47.63651" lon="-2.34653">
        <ele>51</ele>
        <time>2023-11-05T15:00:14Z</time>
      </trkpt>
      <trkpt lat="47.63479" lon="-2.33989">
        <ele>35</ele>
        <time>2023-11-05T15:10:53Z</time>
      </trkpt>
      <trkpt lat="47.63589" lon="-2.33821">
        <ele>38</ele>
        <time>2023-11-05T15:14:24Z</time>
      </trkpt>
      <trkpt lat="47.6372" lon="-2.33754">
        <ele>45</ele>
        <time>2023-11-05T15:17:29Z</time>
      </trkpt>
      <trkpt lat="47.63823" lon="-2.33627">
        <ele>49</ele>
        <time>2023-11-05T15:20:28Z</time>
      </trkpt>
      <trkpt lat="47.63954" lon="-2.33606">
        <ele>46</ele>
        <time>2023-11-05T15:23:23Z</time>
      </trkpt>
      <trkpt lat="47.64164" lon="-2.33668">
        <ele>48</ele>
        <time>2023-11-05T15:28:09Z</time>
      </trkpt>
      <trkpt lat="47.64198" lon="-2.33856">
        <ele>56</ele>
        <time>2023-11-05T15:31:04Z</time>
      </trkpt>
      <trkpt lat="47.64308" lon="-2.33882">
        <ele>56</ele>
        <time>2023-11-05T15:33:33Z</time>
      </trkpt>
      <trkpt lat="47.64367" lon="-2.3406">
        <ele>66</ele>
        <time>2023-11-05T15:36:31Z</time>
      </trkpt>
      <trkpt lat="47.64449" lon="-2.34081">
        <ele>68</ele>
        <time>2023-11-05T15:38:22Z</time>
      </trkpt>
      <trkpt lat="47.64528" lon="-2.34009">
        <ele>63</ele>
        <time>2023-11-05T15:40:26Z</time>
      </trkpt>
      <trkpt lat="47.64961" lon="-2.34132">
        <ele>67</ele>
        <time>2023-11-05T15:50:14Z</time>
      </trkpt>
      <trkpt lat="47.64979" lon="-2.34336">
        <ele>70</ele>
        <time>2023-11-05T15:53:19Z</time>
      </trkpt>
      <trkpt lat="47.65102" lon="-2.34341">
        <ele>66</ele>
        <time>2023-11-05T15:56:03Z</time>
      </trkpt>
      <trkpt lat="47.65185" lon="-2.34938">
        <ele>67</ele>
        <time>2023-11-05T16:05:11Z</time>
      </trkpt>
      <trkpt lat="47.65254" lon="-2.3501">
        <ele>61</ele>
        <time>2023-11-05T16:07:04Z</time>
      </trkpt>
      <trkpt lat="47.6526" lon="-2.35148">
        <ele>67</ele>
        <time>2023-11-05T16:09:08Z</time>
      </trkpt>
      <trkpt lat="47.65302" lon="-2.35367">
        <ele>70</ele>
        <time>2023-11-05T16:12:33Z</time>
      </trkpt>
      <trkpt lat="47.65285" lon="-2.35637">
        <ele>66</ele>
        <time>2023-11-05T16:16:37Z</time>
      </trkpt>
      <trkpt lat="47.65044" lon="-2.35637">
        <ele>83</ele>
        <time>2023-11-05T16:21:58Z</time>
      </trkpt>
      <trkpt lat="47.65037" lon="-2.35806">
        <ele>84</ele>
        <time>2023-11-05T16:24:30Z</time>
      </trkpt>
      <trkpt lat="47.65102" lon="-2.36046">
        <ele>85</ele>
        <time>2023-11-05T16:28:23Z</time>
      </trkpt>
      <trkpt lat="47.65199" lon="-2.36092">
        <ele>78</ele>
        <time>2023-11-05T16:30:39Z</time>
      </trkpt>
      <trkpt lat="47.6546" lon="-2.36954">
        <ele>75</ele>
        <time>2023-11-05T16:44:48Z</time>
      </trkpt>
      <trkpt lat="47.65267" lon="-2.37138">
        <ele>84</ele>
        <time>2023-11-05T16:49:55Z</time>
      </trkpt>
      <trkpt lat="47.6523" lon="-2.37066">
        <ele>84</ele>
        <time>2023-11-05T16:51:16Z</time>
      </trkpt>
      <trkpt lat="47.65144" lon="-2.37138">
        <ele>88</ele>
        <time>2023-11-05T16:53:28Z</time>
      </trkpt>
      <trkpt lat="47.65071" lon="-2.36939">
        <ele>86</ele>
        <time>2023-11-05T16:56:51Z</time>
      </trkpt>
      <trkpt lat="47.65051" lon="-2.36822">
        <ele>87</ele>
        <time>2023-11-05T16:58:40Z</time>
      </trkpt>
      <trkpt lat="47.64831" lon="-2.36816">
        <ele>85</ele>
        <time>2023-11-05T17:03:34Z</time>
      </trkpt>
      <trkpt lat="47.64666" lon="-2.3676">
        <ele>84</ele>
        <time>2023-11-05T17:07:19Z</time>
      </trkpt>
      <trkpt lat="47.64415" lon="-2.36429">
        <ele>80</ele>
        <time>2023-11-05T17:14:47Z</time>
      </trkpt>
      <trkpt lat="47.64305" lon="-2.36398">
        <ele>78</ele>
        <time>2023-11-05T17:17:17Z</time>
      </trkpt>
      <trkpt lat="47.64291" lon="-2.36281">
        <ele>79</ele>
        <time>2023-11-05T17:19:04Z</time>
      </trkpt>
      <trkpt lat="47.63937" lon="-2.36275">
        <ele>78</ele>
        <time>2023-11-05T17:26:56Z</time>
      </trkpt>
      <trkpt lat="47.63899" lon="-2.36306">
        <ele>80</ele>
        <time>2023-11-05T17:27:54Z</time>
      </trkpt>
      <trkpt lat="47.63823" lon="-2.36071">
        <ele>75</ele>
        <time>2023-11-05T17:31:48Z</time>
      </trkpt>
      <trkpt lat="47.63828" lon="-2.35975">
        <ele>78</ele>
        <time>2023-11-05T17:33:15Z</time>
      </trkpt>
      <trkpt lat="47.63911" lon="-2.35931">
        <ele>78</ele>
        <time>2023-11-05T17:35:13Z</time>
      </trkpt>
      <trkpt lat="47.63964" lon="-2.35891">
        <ele>77</ele>
        <time>2023-11-05T17:36:32Z</time>
      </trkpt>
    </trkseg>
  </trk>
</gpx>